#timestamp,LO_Frequency,Hit,StdDev 
1583175615.2,286047000.2,N
1583175635.1,286047001.7,N
1583175636.0,286047001.7,N
1583175655.8,286046999.5,N
1583175675.6,286046995.6,N
1583175695.5,286046997.5,N
1583175715.3,286046999.5,N
1583175735.1,286046999.5,N
1583175755.9,286046999.4,N
1583175775.7,286046997.6,N
1583175795.6,286046995.0,N
1583175815.4,286046995.7,N
1583175835.2,286046996.6,N
1583175855.1,286046996.8,N
1583175856.0,286046996.8,N
1583175875.8,286046999.5,N
1583175895.7,286047000.5,N
1583175915.5,286046998.5,N
1583175935.3,286047000.6,N
1583175955.2,286047000.4,N
1583175975.0,286046999.4,N
1583175975.9,286046999.4,N
1583175995.8,286046997.0,N
1583176015.6,286046998.4,N
1583176035.4,286046999.5,N
1583176055.3,286046997.4,N
1583176075.1,286046997.0,N
1583176095.8,286046996.5,N
1583176115.7,286046999.1,N
1583176135.5,286046996.8,N
1583176155.4,286046998.7,N
1583176175.2,286046999.6,N
1583176195.0,286046998.6,N
1583176195.9,286046998.6,N
1583176215.8,286047000.0,N
1583176235.6,286046999.9,N
1583176255.4,286046999.2,N
1583176275.3,286046998.1,N
1583176295.1,286046998.6,N
1583176315.9,286047000.3,N
1583176335.7,286047000.1,N
1583176355.5,286047000.0,N
1583176375.4,286047001.8,N
1583176395.2,286047003.9,N
1583176415.1,286046999.8,N
1583176416.0,286046999.8,N
1583176435.8,286047002.5,N
1583176455.6,286047000.5,N
1583176475.5,286047001.2,N
1583176495.3,286046999.8,N
1583176515.1,286047001.9,N
1583176535.9,286046999.9,N
1583176555.7,286047002.0,N
1583176575.6,286047001.7,N
1583176595.4,286047002.1,N
1583176615.2,286047001.5,N
1583176635.1,286046999.7,N
1583176636.0,286046999.7,N
1583176655.8,286047002.2,N
1583176675.7,286046998.1,N
1583176695.5,286046999.2,N
1583176715.3,286046999.1,N
1583176735.2,286046997.0,N
1583176755.0,286046995.0,Y
1583176755.9,286046995.0,P
1583176775.7,286046999.6,N
1583176795.6,286046996.8,N
1583176815.4,286046997.5,N
1583176835.3,286046997.5,N
1583176855.1,286046995.7,N
1583176875.8,286046996.8,N
1583176895.7,286047001.0,N
1583176915.5,286047000.2,N
1583176935.4,286047002.4,N
1583176955.2,286046999.8,N
1583176975.0,286046996.6,N
1583176975.9,286046996.6,N
1583176995.8,286046996.7,N
1583177015.6,286046997.3,N
1583177035.4,286046999.5,N
1583177055.3,286046998.5,N
1583177075.1,286047000.1,N
1583177095.9,286047000.4,N
1583177115.7,286047000.0,N
1583177135.5,286046998.2,N
1583177155.4,286046999.5,N
1583177175.2,286046996.5,N
1583177195.0,286046996.8,N
1583177195.9,286046996.8,N
1583177215.8,286046996.5,N
1583177235.6,286046996.7,N
1583177255.5,286046997.4,N
1583177275.3,286046995.5,N
1583177295.1,286046993.5,Y
1583177315.9,286046998.0,P
1583177335.7,286046997.6,P
1583177355.6,286046998.0,P
1583177375.4,286046995.8,Y
1583177395.2,286046997.0,P
1583177415.1,286046997.0,P
1583177416.0,286046997.0,P
1583177435.8,286046997.3,Y
1583177455.7,286047000.3,P
1583177475.5,286047000.4,N
1583177495.3,286047000.8,N
1583177515.2,286047000.2,N
1583177535.0,286047000.1,N
1583177535.9,286047000.1,N
1583177555.7,286047000.5,N
1583177575.6,286046998.1,N
1583177595.4,286047000.9,N
1583177615.3,286047002.3,N
1583177635.1,286047000.4,N
1583177636.0,286047000.4,N
1583177655.8,286047001.2,N
1583177675.7,286046998.6,N
1583177695.5,286046999.0,N
1583177715.3,286046998.1,N
1583177735.2,286046999.3,N
1583177755.0,286046998.9,N
1583177755.9,286046998.9,N
1583177775.8,286046999.4,N
1583177795.6,286046996.6,N
1583177815.4,286046998.4,N
1583177835.3,286046998.5,N
1583177855.1,286046996.6,N
1583177875.9,286046997.2,N
1583177895.7,286046998.8,N
1583177915.5,286046999.1,N
1583177935.4,286046997.7,N
1583177955.2,286046997.6,N
1583177975.1,286046994.9,Y
1583177976.0,286046994.9,P
1583177995.8,286046995.3,N
1583178015.6,286046997.8,N
1583178035.5,286046995.2,N
1583178055.3,286046996.2,N
1583178075.2,286046995.4,N
1583178095.9,286046995.4,Y
1583178115.7,286047000.7,P
1583178135.6,286047002.2,N
1583178155.4,286047001.8,N
1583178175.2,286047002.9,N
1583178195.1,286047002.1,N
1583178196.0,286047002.1,N
1583178215.8,286046998.3,N
1583178235.7,286047000.8,N
1583178255.5,286047000.5,N
1583178275.3,286047000.0,N
1583178295.2,286047000.7,N
1583178315.0,286047001.0,N
1583178315.9,286047001.0,N
1583178335.8,286047001.1,N
1583178355.6,286046999.3,N
1583178375.4,286046996.9,N
1583178395.3,286046998.5,N
1583178415.1,286047000.2,N
1583178435.9,286047002.2,N
1583178455.7,286047004.4,N
1583178475.5,286047002.4,N
1583178495.4,286047002.5,N
1583178515.2,286047002.2,N
1583178535.0,286047003.4,N
1583178535.9,286047003.4,N
1583178555.8,286047003.5,N
1583178575.6,286047004.2,N
1583178595.5,286047004.0,N
1583178615.3,286047004.3,N
1583178635.1,286047003.9,N
1583178655.9,286047003.7,N
1583178675.7,286047004.4,N
1583178695.6,286047003.1,N
1583178715.4,286047003.3,N
1583178735.2,286047005.7,N
1583178755.1,286047007.2,Y
1583178756.0,286047007.2,P
1583178775.8,286047004.3,N
1583178795.7,286046999.9,N
1583178815.5,286047002.4,N
1583178835.3,286047002.3,N
1583178855.2,286047003.9,N
1583178875.0,286047001.9,N
1583178875.9,286047001.9,N
1583178895.8,286047001.6,N
1583178915.6,286047002.8,N
1583178935.4,286046999.7,N
1583178955.3,286047002.0,N
1583178975.1,286047004.1,N
1583178995.8,286047003.0,N
1583179015.7,286047004.8,N
1583179035.5,286047001.6,N
1583179055.4,286047002.3,N
1583179075.2,286047002.3,N
1583179095.0,286047002.4,N
1583179095.9,286047002.4,N
1583179115.8,286047001.2,N
1583179135.6,286046998.1,N
1583179155.5,286047001.2,N
1583179175.3,286046999.9,N
1583179195.1,286047002.5,N
